TimeCST,TemperatureF,Dew PointF,Humidity,Sea Level PressureIn,VisibilityMPH,Wind Direction,Wind SpeedMPH,Gust SpeedMPH,PrecipitationIn,Events,Conditions,WindDirDegrees,DateUTC
12:53 AM,42.1,36.0,79,29.89,10.0,NW,4.6,-,N/A,,Clear,320,2012-11-26 06:53:00
1:53 AM,39.9,35.1,83,29.88,10.0,NW,4.6,-,N/A,,Clear,320,2012-11-26 07:53:00
2:53 AM,37.9,35.1,89,29.89,10.0,NNW,4.6,-,N/A,,Clear,330,2012-11-26 08:53:00
3:53 AM,37.9,35.1,89,29.89,10.0,NW,6.9,-,N/A,,Clear,310,2012-11-26 09:53:00
4:53 AM,37.0,34.0,89,29.90,10.0,NNW,5.8,-,N/A,,Clear,330,2012-11-26 10:53:00
5:53 AM,37.9,34.0,86,29.92,10.0,NNW,8.1,-,N/A,,Clear,340,2012-11-26 11:53:00
6:53 AM,37.9,33.1,83,29.94,10.0,North,9.2,-,N/A,,Clear,350,2012-11-26 12:53:00
7:18 AM,39.2,35.6,87,29.95,10.0,North,8.1,-,N/A,,Mostly Cloudy,350,2012-11-26 13:18:00
7:53 AM,41.0,35.1,79,29.97,10.0,North,9.2,-,N/A,,Overcast,350,2012-11-26 13:53:00
8:53 AM,42.1,34.0,73,30.01,10.0,North,12.7,-,N/A,,Overcast,10,2012-11-26 14:53:00
9:53 AM,43.0,34.0,71,30.05,10.0,North,13.8,-,N/A,,Overcast,10,2012-11-26 15:53:00
10:53 AM,44.1,34.0,68,30.06,10.0,North,11.5,-,N/A,,Overcast,360,2012-11-26 16:53:00
11:53 AM,44.1,33.1,65,30.08,10.0,North,20.7,25.3,N/A,,Overcast,350,2012-11-26 17:53:00
12:53 PM,46.0,33.1,61,30.09,10.0,North,18.4,27.6,N/A,,Overcast,360,2012-11-26 18:53:00
1:33 PM,44.6,32.0,61,30.10,10.0,North,20.7,27.6,N/A,,Overcast,10,2012-11-26 19:33:00
1:53 PM,45.0,32.0,60,30.12,10.0,North,18.4,29.9,N/A,,Overcast,10,2012-11-26 19:53:00
2:53 PM,46.0,30.9,56,30.14,10.0,NNE,19.6,29.9,N/A,,Overcast,20,2012-11-26 20:53:00
3:53 PM,46.9,30.9,54,30.18,10.0,North,16.1,26.5,N/A,,Overcast,10,2012-11-26 21:53:00
4:53 PM,46.9,27.0,46,30.22,10.0,NNE,16.1,28.8,N/A,,Overcast,20,2012-11-26 22:53:00
5:53 PM,45.0,26.1,48,30.26,10.0,North,17.3,31.1,N/A,,Scattered Clouds,10,2012-11-26 23:53:00
6:53 PM,43.0,26.1,51,30.30,10.0,North,12.7,23.0,N/A,,Partly Cloudy,10,2012-11-27 00:53:00
7:53 PM,42.1,25.0,51,30.33,10.0,NNE,16.1,23.0,N/A,,Clear,20,2012-11-27 01:53:00
8:53 PM,39.9,27.0,60,30.37,10.0,North,13.8,-,N/A,,Clear,10,2012-11-27 02:53:00
9:53 PM,39.0,27.0,62,30.39,10.0,North,13.8,20.7,N/A,,Clear,10,2012-11-27 03:53:00
10:53 PM,37.0,27.0,67,30.40,10.0,North,13.8,-,N/A,,Clear,360,2012-11-27 04:53:00
11:53 PM,35.1,27.0,72,30.40,10.0,North,11.5,-,N/A,,Clear,360,2012-11-27 05:53:00